[Date Prev][Date Next][Thread Prev][Thread Next] - [Date Index][Thread Index][Author Index]
2 Line ISS Keps 4-16
- Subject: [sarex] 2 Line ISS Keps 4-16
- From: "Dave Larsen PhD" <doc@xxxxxxxxxxx>
- Date: Sun, 16 Apr 2006 04:02:22 -0700
ISS
1 25544U 98067A 06106.27793512 .00021311 00000-0 14118-3 0 7410
2 25544 051.6405 146.1466 0009199 114.9209 340.3528 15.75426942423408
----
Via the sarex mailing list at AMSAT.ORG courtesy of AMSAT-NA.
To unsubscribe, send "unsubscribe sarex" to Majordomo@amsat.org
AMSAT Home